Airfield :
LOGIN :

Register | Disclaimer

   EN    FR    IT 

 










Legend :    VFR   Marginal VFR   IFR   Intensive IFR   Very Intensive IFR
Visi :
Ceiling :
>= 8 km
>= 3000ft
5 to 8 km
1000 to 3000 ft
1500m to 5 km
500 to 1000 ft
800 to 1500m
200 to 500 ft
< 800m
< 200 ft
Symbols :   Thunderstorms  Fog  Heavy snow  Heavy precipitations  Wind > 20 kt
SIGMETs :     Misc.  Thunderstorms  Icing  Turbulence  Mountain Waves  Volcanic Ashes






- Airport Elevation : 39 ft
- IATA code : CTA


LICC - Catania Fontanarossa

CURRENT METAR :
  • 211820Z VRB02KT CAVOK 18/13 Q1024

EXPIRED METARs :
  • 211750Z 11002KT CAVOK 18/14 Q1024
  • 211720Z 09004KT CAVOK 19/14 Q1024
  • 211650Z 09005KT CAVOK 19/14 Q1023
  • 211620Z 10005KT CAVOK 19/14 Q1023
  • 211550Z 08007KT CAVOK 20/14 Q1023

TAF TAF LICC
Valid from the 21 at 18:00 until the 22 at 18:00 UTC


211700Z 2118/2218 23006KT 9999 FEW040
BECMG 2208/2210 08010KT
BECMG 2216/2218 VRB05KT



MET'MAP, your aeronautical weather chart ! - Copyright ORBIFLY December 2007 - Disclaimer

ORBIFLY MET'MAP TEAM :

Programming & Development : Alexandra Zaïnal
Concept & original design : Baudouin d'Aumeries
Assistance for programming : Marc-Olivier Méhu
Technical & hardware support : Manuel Goepfert

Contact : metmap@orbifly.com




SOURCES & CREDITS :

   NOAA